Simultaneous Nadir Overpasses (SNOs) Predictions

Prediction of SNOs between METOP-A and NOAA-19 Satellite Orbit:

Table of predicted SNOs for the next 14.0 days since TLE Epoch: 5/5/2012
Index Date (METOP-A) Time (METOP-A) METOP-A Lat,Lon Date (NOAA-19) Time (NOAA-19) NOAA-19 Lat,Lon Distance(km) Time Diff (sec)
1 05/06/2012 21:35:47 73.30,-150.87 05/06/2012 21:34:34 73.31,-151.73 27.74 73
2 05/06/2012 22:26:33 -73.08, 15.97 05/06/2012 22:25:26 -73.07, 16.06 3.11 67
3 05/06/2012 23:17:13 73.08,-176.69 05/06/2012 23:16:35 73.10,-176.77 3.24 38
4 05/07/2012 00:07:55 -73.06, -9.41 05/07/2012 00:07:31 -73.06, -9.42 0.29 24
5 05/07/2012 00:58:36 73.01, 157.82 05/07/2012 00:58:39 73.03, 157.85 2.64 3
6 05/07/2012 01:49:18 -72.99, -34.90 05/07/2012 01:49:35 -72.99, -34.80 3.40 17
7 05/07/2012 02:39:58 72.99, 132.43 05/07/2012 02:40:43 72.97, 132.47 2.90 45
8 05/07/2012 03:30:40 -72.97, -60.29 05/07/2012 03:31:40 -72.98, -60.29 0.92 60
9 05/07/2012 04:21:30 72.46, 106.00 05/07/2012 04:22:39 72.50, 107.94 64.92 69
10 05/16/2012 18:06:01 73.57, -97.84 05/16/2012 18:04:52 73.60, -99.93 65.83 69
11 05/16/2012 18:56:52 -73.11, 68.46 05/16/2012 18:55:41 -73.12, 68.43 1.39 71
12 05/16/2012 19:47:32 73.09,-124.24 05/16/2012 19:46:47 73.09,-124.29 1.67 45
13 05/16/2012 20:38:15 -73.04, 42.97 05/16/2012 20:37:45 -73.05, 43.05 2.96 30
14 05/16/2012 21:28:55 73.02,-149.73 05/16/2012 21:28:51 73.02,-149.67 2.13 4
15 05/16/2012 22:19:37 -73.02, 17.58 05/16/2012 22:19:50 -73.04, 17.56 2.41 13
16 05/16/2012 23:10:17 73.00,-175.12 05/16/2012 23:10:56 73.01,-175.16 1.66 39
17 05/17/2012 00:00:59 -73.00, -7.80 05/17/2012 00:01:54 -72.97, -7.83 2.71 55
18 05/17/2012 00:51:45 72.68, 158.86 05/17/2012 00:52:56 72.75, 159.89 34.89 71




NCC Satellite Simultaneous Nadir Overpasses (SNOs) Prediction Service
